[[{"header":{"parameterUnit":"m.s-1","parameterCategory":1,"la1":30.2991,"la2":30.254,"lo1":-89.0895,"lo2":-89.0444,"dy":0.0017,"dx":0.0017,"nx":28,"ny":28,"refTime":"2024-05-30T09:00:00:Z","depth":0,"parameterNumber":2,"parameterNumberName":"U-component_of_WINDS"},"data":[0,0,0,0,0,0,0,0,0,0,0,0,0,0,0,0,0,0,0,0,0,0,0,0,0,0,0,0,0,0,0,0,0,0,0,0,0,0,0,0,0,0,0,0,0,0,0,0,0,0,0,0,0,0,0,0,0,0,-4.3635,-4.3635,0,-4.367,-4.3671,-4.3671,-4.3626,-4.3625,-4.3623,-4.3622,-4.3657,-4.3659,-4.3661,0,0,0,0,0,0,0,0,0,0,0,0,0,-4.3529,-4.3531,-4.3635,-4.3635,-4.3636,-4.367,-4.3671,-4.3671,-4.3627,-4.3625,-4.3623,-4.3621,-4.3656,-4.3659,-4.3662,0,0,0,0,0,0,0,0,0,0,0,0,0,-4.357,-4.3531,-4.3635,-4.3618,-4.3617,-4.367,-4.3671,-4.3671,-4.3627,-4.3625,-4.3622,-4.362,-4.3655,-4.3658,-4.3662,-4.3734,0,0,-4.3673,-4.3675,0,0,0,0,0,0,0,0,-4.3568,-4.3574,-4.362,-4.3619,-4.3618,-4.3642,-4.3646,-4.3692,-4.3628,-4.3623,-4.3622,-4.3619,-4.3654,-4.3657,-4.3669,-4.3735,-4.3737,-4.3674,-4.3676,-4.3678,-4.3679,0,0,0,0,0,0,0,-4.3565,-4.3573,-4.3649,-4.3621,-4.3619,-4.3608,-4.3612,-4.3655,-4.3652,-4.3623,-4.362,-4.3625,-4.3652,-4.3666,-4.367,-4.3738,-4.3674,-4.3677,-4.3679,-4.3681,-4.3865,-4.3867,0,0,0,0,0,0,-4.3564,-4.357,-4.3648,-4.365,-4.3587,-4.3612,-4.3616,-4.3636,-4.3651,-4.3651,-4.3627,-4.3623,-4.3661,-4.3665,-4.3671,-4.3755,-4.3677,-4.3681,-4.3683,-4.3862,-4.3865,-4.3868,0,0,0,0,0,0,-4.3562,-4.3572,-4.3646,-4.3609,-4.3618,-4.3617,-4.364,-4.3638,-4.3651,-4.3654,-4.3653,-4.3641,-4.3659,-4.3666,-4.3719,-4.3756,-4.3683,-4.3686,-4.3859,-4.3863,-4.3867,-4.3925,0,0,0,0,0,0,-4.356,-4.3571,-4.3598,-4.361,-4.362,-4.3694,-4.3642,-4.3641,-4.3658,-4.3653,-4.3667,-4.3667,-4.3657,-4.3713,-4.3722,-4.3759,-4.3689,-4.3856,-4.3861,-4.3866,-4.3919,-4.393,-4.3939,0,0,0,0,0,-4.3556,-4.3613,-4.36,-4.361,-4.3654,-4.3696,-4.3702,-4.369,-4.3661,-4.3688,-4.369,-4.3666,-4.3751,-4.3719,-4.3729,-4.3768,-4.3853,-4.3859,-4.3865,-4.3915,-4.3928,-4.3939,0,0,0,0,0,0,-4.3604,-4.3614,-4.36,-4.3663,-4.3679,-4.3688,-4.3722,-4.3704,-4.3729,-4.3723,-4.3707,-4.3711,-4.3767,-4.3773,-4.3738,-4.3838,-4.3797,-4.3805,-4.3832,-4.3844,-4.3854,-4.385,-4.3692,0,0,0,0,0,-4.3623,-4.3656,-4.3663,-4.3718,-4.3727,-4.3723,-4.3741,-4.3731,-4.3747,-4.3754,-4.3759,-4.3775,-4.3806,-4.3826,-4.3854,-4.3921,-4.3923,-4.3953,-4.3963,-4.3971,-4.3977,-4.4013,-4.4026,-4.3888,-4.3888,-4.3888,0,0,-4.366,-4.367,-4.3691,-4.3728,-4.3739,-4.3774,-4.3729,-4.3768,-4.3793,-4.3759,-4.3809,-4.3815,-4.3832,-4.3892,-4.3919,-4.3899,-4.4017,-4.3979,-4.3985,-4.3987,-4.4021,-4.4034,-4.4045,-4.3892,-4.3891,-4.3891,0,0,-4.3746,-4.3757,-4.3803,-4.3816,-4.3834,-4.3832,-4.3844,-4.3856,-4.3858,-4.3909,-4.3884,-4.3915,-4.3967,-4.398,-4.3994,-4.4087,-4.4066,-4.4097,-4.4148,-4.4183,-4.4194,-4.4204,-4.4236,-4.4247,-4.4104,-4.4104,-4.4104,0,-4.379,-4.3841,-4.3829,-4.387,-4.3886,-4.3859,-4.3906,-4.3919,-4.3945,-4.3957,-4.3934,-4.4,-4.401,-4.4073,-4.4096,-4.4108,-4.412,-4.4094,-4.4194,-4.4203,-4.4212,-4.4242,-4.4254,-4.4108,-4.4107,-4.4107,-4.4107,0,-4.3894,-4.393,-4.3965,-4.3992,-4.4013,-4.4057,-4.4052,-4.4074,-4.4063,-4.4064,-4.4116,-4.4127,-4.4156,-4.4171,-4.4161,-4.4233,-4.422,-4.4196,-4.4154,-4.4229,-4.4257,-4.4268,-4.4113,-4.4112,-4.4111,-4.411,0,0,-4.4008,-4.4029,-4.4042,-4.4054,-4.4073,-4.4101,-4.4144,-4.4174,-4.4193,-4.4213,-4.4248,-4.4294,-4.4272,-4.4288,-4.4279,-4.431,-4.4382,-4.4282,-4.4282,-4.4299,-4.4462,-4.4478,-4.4492,-4.4369,-4.4371,-4.4373,-4.446,0,-4.4093,-4.4166,-4.4158,-4.4228,-4.4261,-4.4237,-4.4274,-4.429,-4.4292,-4.4321,-4.4323,-4.4355,-4.4325,-4.4334,-4.4364,-4.4367,-4.4414,-4.4361,-4.44,-4.4402,-4.4394,-4.4507,-4.4524,-4.4605,-4.4471,-4.4473,-4.4474,0,-4.42,-4.4225,-4.4298,-4.4313,-4.4326,-4.436,-4.4387,-4.4415,-4.4432,-4.4432,-4.4451,-4.4437,-4.4479,-4.4439,-4.4498,-4.4462,-4.4478,-4.4483,-4.4485,-4.4487,-4.4441,-4.4509,-4.463,-4.4642,-4.4492,-4.449,-4.4489,0,-4.4275,-4.4326,-4.4377,-4.4388,-4.4407,-4.4431,-4.444,-4.4455,-4.4474,-4.4498,-4.4509,-4.4538,-4.4553,-4.4576,-4.457,-4.4542,-4.463,-4.4589,-4.463,-4.463,-4.4648,-4.4646,-4.4771,-4.4662,-4.4662,-4.4662,-4.4661,0,-4.4369,-4.4414,-4.441,-4.4441,-4.4492,-4.4483,-4.4533,-4.4539,-4.4553,-4.4585,-4.4566,-4.4596,-4.4588,-4.4618,-4.4614,-4.4663,-4.467,-4.4671,-4.4669,-4.4671,-4.4671,-4.468,-4.4673,-4.4665,-4.4664,-4.4663,-4.4663,0,-4.4459,-4.4458,-4.4512,-4.4526,-4.453,-4.4567,-4.4579,-4.4608,-4.4609,-4.465,-4.4659,-4.4661,-4.4695,-4.4693,-4.4731,-4.4729,-4.4789,-4.4781,-4.4782,-4.478,-4.482,-4.4816,-4.4953,-4.4971,-4.4852,-4.4853,-4.4854,0,-4.4518,-4.4553,-4.4571,-4.4591,-4.4601,-4.4634,-4.4653,-4.4646,-4.4667,-4.4691,-4.4717,-4.475,-4.4775,-4.4831,-4.4836,-4.4866,-4.4858,-4.4904,-4.4862,-4.4863,-4.4856,-4.4854,-4.4857,-4.4911,-4.4913,-4.4914,-4.4915,0,-4.4622,-4.4621,-4.4649,-4.4678,-4.4701,-4.4724,-4.4744,-4.4761,-4.4756,-4.4781,-4.4816,-4.4836,-4.4876,-4.4908,-4.4937,-4.4946,-4.493,-4.4929,-4.4939,-4.4941,-4.494,-4.4939,-4.4803,-4.4925,-4.4924,-4.4923,-4.4922,-4.4922,-4.4698,-4.4727,-4.4745,-4.4777,-4.4792,-4.4812,-4.484,-4.4845,-4.4874,-4.4906,-4.4901,-4.494,-4.4958,-4.4994,-4.5007,-4.5037,-4.502,-4.5036,-4.504,-4.5043,-4.5047,-4.4937,-4.5043,-4.5042,-4.5042,-4.5042,-4.5042,0,-4.48,-4.481,-4.484,-4.4869,-4.4895,-4.4879,-4.4901,-4.4923,-4.4958,-4.4976,-4.5002,-4.5043,-4.5075,-4.5083,-4.5114,-4.5136,-4.513,-4.5145,-4.5142,-4.5144,-4.5061,-4.5048,-4.515,-4.5149,-4.5149,-4.5149,-4.5149,-4.5149,-4.4856,-4.4905,-4.4906,-4.4962,-4.4972,-4.501,-4.5024,-4.5042,-4.5056,-4.5103,-4.5129,-4.5135,-4.5149,-4.5181,-4.521,-4.5211,-4.5223,-4.524,-4.5239,-4.5161,-4.515,-4.5139,-4.5127,-4.5243,-4.5243,-4.5319,-4.5319,-4.532]},{"header":{"parameterUnit":"m.s-1","parameterCategory":1,"la1":30.2991,"la2":30.254,"lo1":-89.0895,"lo2":-89.0444,"dy":0.0017,"dx":0.0017,"nx":28,"ny":28,"refTime":"2024-05-30T09:00:00:Z","depth":0,"parameterNumber":3,"parameterNumberName":"V-component_of_WINDS"},"data":[0,0,0,0,0,0,0,0,0,0,0,0,0,0,0,0,0,0,0,0,0,0,0,0,0,0,0,0,0,0,0,0,0,0,0,0,0,0,0,0,0,0,0,0,0,0,0,0,0,0,0,0,0,0,0,0,0,0,3.944,3.944,0,3.9442,3.9442,3.9442,3.9422,3.9421,3.942,3.942,3.9422,3.9422,3.9423,0,0,0,0,0,0,0,0,0,0,0,0,0,3.9418,3.9418,3.944,3.944,3.944,3.9442,3.9442,3.9442,3.9422,3.9421,3.942,3.942,3.9421,3.9422,3.9423,0,0,0,0,0,0,0,0,0,0,0,0,0,3.9425,3.9419,3.944,3.943,3.9429,3.9442,3.9442,3.9442,3.9422,3.9421,3.942,3.9419,3.9421,3.9422,3.9423,3.9445,0,0,3.9426,3.9426,0,0,0,0,0,0,0,0,3.9424,3.9425,3.9431,3.9431,3.943,3.9431,3.9435,3.9443,3.9422,3.9425,3.942,3.9419,3.9425,3.9426,3.9428,3.9445,3.9446,3.9426,3.9426,3.9427,3.9427,0,0,0,0,0,0,0,3.9424,3.9425,3.9441,3.9431,3.943,3.9425,3.9425,3.9436,3.943,3.9424,3.9423,3.9423,3.9425,3.9427,3.9428,3.9446,3.9426,3.9426,3.9427,3.9427,3.9482,3.9483,0,0,0,0,0,0,3.9425,3.9425,3.9441,3.9441,3.9425,3.9427,3.9427,3.9431,3.9429,3.9428,3.9424,3.9422,3.9426,3.9427,3.9428,3.9454,3.9427,3.9427,3.9428,3.9481,3.9482,3.9483,0,0,0,0,0,0,3.9424,3.9426,3.944,3.9432,3.9434,3.9428,3.9433,3.9432,3.9434,3.9429,3.9428,3.9428,3.9426,3.9427,3.9441,3.9454,3.9428,3.9429,3.948,3.9481,3.9483,3.9507,0,0,0,0,0,0,3.9424,3.9426,3.9434,3.9433,3.9434,3.9454,3.9434,3.9432,3.9436,3.9434,3.9433,3.9432,3.9425,3.944,3.9442,3.9455,3.9429,3.9479,3.9481,3.9482,3.9505,3.9509,3.9512,0,0,0,0,0,3.9423,3.9441,3.9435,3.9437,3.9445,3.9454,3.9455,3.9448,3.9437,3.9445,3.9442,3.9432,3.9452,3.9442,3.9444,3.9457,3.9478,3.948,3.9482,3.9503,3.9508,3.9512,0,0,0,0,0,0,3.9444,3.944,3.9434,3.9452,3.9454,3.9451,3.9461,3.9453,3.9458,3.9455,3.9445,3.9445,3.9462,3.9461,3.9449,3.9479,3.9463,3.9466,3.9478,3.9483,3.9487,3.9486,3.943,0,0,0,0,0,3.945,3.9459,3.9455,3.9472,3.9473,3.9467,3.9471,3.9465,3.9466,3.9467,3.9465,3.9467,3.9474,3.9479,3.9485,3.9505,3.9504,3.9515,3.9519,3.9522,3.9524,3.9535,3.9539,3.949,3.949,3.949,0,0,3.9464,3.9463,3.9469,3.9476,3.9476,3.9485,3.9468,3.9478,3.9484,3.9468,3.9482,3.9481,3.9482,3.95,3.9508,3.95,3.9537,3.9524,3.9527,3.9527,3.9537,3.9542,3.9546,3.9492,3.9491,3.9491,0,0,3.9493,3.9494,3.9507,3.9509,3.9511,3.9507,3.951,3.9509,3.9508,3.9522,3.951,3.9518,3.953,3.9532,3.9534,3.9566,3.9556,3.9568,3.9587,3.9598,3.9602,3.9605,3.9616,3.962,3.9571,3.9571,3.9571,0,3.951,3.9523,3.9515,3.9526,3.953,3.9517,3.9531,3.9532,3.9536,3.9538,3.953,3.9545,3.9545,3.9563,3.9571,3.9574,3.9577,3.9568,3.9602,3.9605,3.9608,3.9619,3.9623,3.9572,3.9572,3.9572,3.9572,0,3.9543,3.9553,3.9564,3.9568,3.9573,3.9585,3.9579,3.9585,3.9579,3.9576,3.9591,3.9591,3.9597,3.9601,3.9595,3.9618,3.9613,3.9604,3.9588,3.9614,3.9624,3.9628,3.9574,3.9573,3.9573,3.9573,0,0,3.9584,3.9585,3.9589,3.9591,3.9593,3.96,3.9612,3.9619,3.9624,3.9627,3.9637,3.9648,3.9639,3.9642,3.9637,3.9646,3.9671,3.9635,3.9635,3.9641,3.9697,3.9703,3.9708,3.9665,3.9666,3.9667,3.9696,0,3.9613,3.9633,3.9628,3.9648,3.9657,3.9646,3.9656,3.9658,3.9657,3.9664,3.9662,3.967,3.9658,3.9659,3.9668,3.9666,3.9682,3.9664,3.9674,3.9674,3.9673,3.9713,3.972,3.9748,3.97,3.9701,3.9701,0,3.9648,3.9654,3.9675,3.9676,3.968,3.9689,3.9695,3.9702,3.9705,3.9703,3.9707,3.9699,3.9711,3.9697,3.9713,3.9701,3.9705,3.9705,3.9706,3.9706,3.9689,3.9714,3.9757,3.9761,3.9707,3.9707,3.9706,0,3.9675,3.9688,3.9703,3.9705,3.9707,3.9714,3.9715,3.9717,3.9721,3.9726,3.9729,3.9735,3.9739,3.9744,3.9739,3.9728,3.9756,3.9741,3.9755,3.9755,3.976,3.976,3.9804,3.9764,3.9764,3.9764,3.9764,0,3.9707,3.9721,3.9715,3.9724,3.974,3.9733,3.9748,3.9748,3.975,3.9759,3.9749,3.9758,3.9751,3.9759,3.9755,3.9769,3.9771,3.9769,3.9768,3.977,3.977,3.9771,3.9769,3.9765,3.9765,3.9765,3.9764,0,3.974,3.9737,3.9752,3.9753,3.9753,3.9764,3.9765,3.9773,3.9771,3.9783,3.9785,3.9782,3.9791,3.9786,3.9795,3.9793,3.9811,3.9807,3.981,3.9809,3.9823,3.9821,3.9869,3.9875,3.9832,3.9832,3.9833,0,3.976,3.977,3.9773,3.9778,3.978,3.9789,3.9793,3.9788,3.9793,3.9798,3.9805,3.9814,3.982,3.9835,3.9833,3.984,3.9836,3.9852,3.9837,3.9839,3.9836,3.9835,3.9836,3.9855,3.9856,3.9856,3.9856,0,3.9796,3.9794,3.9802,3.9809,3.9815,3.982,3.9825,3.983,3.9824,3.9831,3.984,3.9845,3.9855,3.9863,3.9869,3.987,3.9862,3.9862,3.9865,3.9866,3.9867,3.9867,3.9818,3.986,3.986,3.986,3.9859,3.9859,3.9823,3.9832,3.9835,3.9844,3.9847,3.9851,3.9859,3.9859,3.9866,3.9874,3.9871,3.9881,3.9884,3.9892,3.9894,3.9902,3.9896,3.9901,3.9902,3.9903,3.9905,3.9867,3.9904,3.9903,3.9903,3.9903,3.9903,0,3.9858,3.986,3.9868,3.9875,3.9882,3.9875,3.988,3.9886,3.9896,3.9899,3.9906,3.9917,3.9925,3.9925,3.9932,3.9939,3.9935,3.9941,3.994,3.994,3.9911,3.9907,3.9944,3.9944,3.9944,3.9943,3.9943,3.9943,3.9877,3.9892,3.9891,3.9907,3.9909,3.992,3.9923,3.9927,3.993,3.9943,3.995,3.995,3.9952,3.9959,3.9967,3.9966,3.9969,3.9976,3.9974,3.9946,3.9942,3.9938,3.9935,3.9977,3.9977,4.0003,4.0003,4.0004]}]]